• MPC Preparation (Info)

  • MPEC 2010-A84 : 2010 AO60

    The following Minor Planet Electronic Circular may be linked-to from your own Web pages, but must not otherwise be redistributed electronically.

    A form allowing access to any MPEC is at the bottom of this page.


    Read MPEC 2010-A83 Read MPEC 2010-A85


    M.P.E.C. 2010-A84                                Issued 2010 Jan. 15, 22:24 UT
    
         The Minor Planet Electronic Circulars contain information on unusual
             minor planets and routine data on comets.  They are published
       on behalf of Commission 20 of the International Astronomical Union by the
              Minor Planet Center, Smithsonian Astrophysical Observatory,
                              Cambridge, MA 02138, U.S.A.
    
                 Prepared using the Tamkin Foundation Computer Network
    
                                  MPC@CFA.HARVARD.EDU
              URL http://www.cfa.harvard.edu/iau/mpc.html  ISSN 1523-6714
    
                                       2010 AO60
    
    Observations:
         K10A60O* C2010 01 15.37527 10 47 28.96 +34 47 51.6          18.1 V EA084703
         K10A60O  C2010 01 15.38262 10 47 23.60 +34 47 36.2          18.1 V EA084703
         K10A60O  C2010 01 15.39012 10 47 18.13 +34 47 19.2          18.1 V EA084703
         K10A60O  C2010 01 15.56054 10 45 13.86 +34 40 36.6          18.4 V EA084703
         K10A60O  C2010 01 15.56132 10 45 13.38 +34 40 34.7          18.5 V EA084703
         K10A60O  C2010 01 15.56164 10 45 13.09 +34 40 33.5          18.1 V EA084703
         K10A60O  C2010 01 15.56198 10 45 12.87 +34 40 33.8          17.9 V EA084703
         K10A60O  C2010 01 15.56230 10 45 12.68 +34 40 32.4          17.8 V EA084703
         K10A60O  C2010 01 15.88506 10 41 37.22 +34 27 16.8          18.0 V EA084595
         K10A60O  C2010 01 15.89103 10 41 32.95 +34 27 03.1          18.1 V EA084595
         K10A60O  C2010 01 15.89699 10 41 28.77 +34 26 50.2                 EA084595
    
    Observer details:
    595 Farra d'Isonzo.  Observer E. Pettarin.  0.40-m f/4.5 reflector + CCD.
    703 Catalina Sky Survey.  Observer A. R. Gibbs.  Measurers J. D. Ahern,
        E. C. Beshore, A. Boattini, G. J. Garradd, A. R. Gibbs, A. D. Grauer,
        R. E. Hill, R. A. Kowalski, S. M. Larson, R. H. McNaught.  0.68-m Schmidt
        + CCD.
    
    Orbital elements:
    2010 AO60                                                Earth MOID = 0.0808 AU
    Epoch 2010 Jan. 4.0 TT = JDT 2455200.5                  MPC
    M  89.60163              (2000.0)            P               Q
    n   1.04162179     Peri.   39.94442     +0.97777635     +0.15482141
    a   0.9638202      Node   310.55874     -0.20558738     +0.84017641
    e   0.2513416      Incl.   10.72345     +0.04107590     +0.51974410
    P   0.95           H   21.4           G   0.15           U   9
    Residuals in seconds of arc
    100115 703  0.0   0.2-    100115 703  0.4+  0.1-    100115 595  0.6+  0.2+
    100115 703  0.0   0.4+    100115 703  0.3-  0.5-    100115 595  0.4-  0.3-
    100115 703  0.0   0.1-    100115 703  0.0   0.6+    100115 595  0.2-  0.1+
    100115 703  0.6-  0.2-    100115 703  0.5+  0.0
    
    Ephemeris:
    2010 AO60                a,e,i = 0.96, 0.25, 11                  q = 0.7216
    Date    TT    R. A. (2000) Decl.     Delta      r     Elong.  Phase     V
    2010 01 14    11 03.41   +35 35.9    0.105    1.059   134.0    41.9    18.3
    2010 01 24    09 15.70   +27 15.9    0.113    1.094   165.8    12.8    17.6
    2010 02 03    08 06.65   +17 49.6    0.143    1.125   165.9    12.3    18.2
    2010 02 13    07 32.40   +11 31.9    0.188    1.151   147.5    27.4    19.3
    2010 02 23    07 18.77   +07 54.7    0.243    1.172   134.2    37.2    20.2
    2010 03 05    07 16.95   +05 49.0    0.302    1.188   124.2    43.7    20.9
    2010 03 15    07 22.22   +04 31.2    0.363    1.199   116.0    48.2    21.4
    2010 03 25    07 32.22   +03 36.2    0.424    1.205   109.1    51.4    21.8
    2010 04 04    07 45.46   +02 49.7    0.483    1.206   103.1    53.9    22.2
    2010 04 14    08 01.02   +02 04.2    0.540    1.201    97.8    55.8    22.5
    
    Sonia Keys                   (C) Copyright 2010 MPC           M.P.E.C. 2010-A84
    

    Read MPEC 2010-A83 Read MPEC 2010-A85


    MPEC number:

    Enter an MPEC number in one of the following forms:

    • 1997-B01 (the full form)
    • J97B01 (the packed version of the full form)
    • B01 (the abbreviated form)